Location: Newark
(44.5608°N, 0.1333°E)
Time: 20:10:49
(UTC+00:00)

Envisat - Visible Passes

Search period start: 29 January 2020 00:00
Search period end: 08 February 2020 00:00
Orbit: 764 x 766 km, 98.1° (Epoch: 29 January)

Date Brightness Start Highest point End Pass type
(mag) Time Alt. Az. Time Alt. Az. Time Alt. Az.
29 Jan 6.1 05:27:03 10° NE 05:30:09 16° E 05:33:13 10° SE visible
29 Jan 4.3 18:21:05 10° S 18:25:53 43° W 18:30:44 10° NNW visible
30 Jan 3.8 06:27:50 10° NNE 06:32:52 58° E 06:37:52 10° S visible
30 Jan 3.0 17:43:57 10° SSE 17:49:01 89° E 17:54:09 10° NNW visible
30 Jan 6.3 19:27:06 10° WSW 19:28:45 11° W 19:30:24 10° WNW visible
31 Jan 5.3 05:51:35 10° NE 05:55:54 27° E 06:00:11 10° SSE visible
31 Jan 5.4 18:47:24 10° SSW 18:51:33 25° W 18:55:43 10° NW visible
01 Feb 6.3 05:16:34 10° ENE 05:18:42 13° E 05:20:50 10° ESE visible
01 Feb 3.9 18:09:35 10° S 18:14:32 54° W 18:19:32 10° NNW visible
02 Feb 4.3 06:16:38 10° NNE 06:21:32 46° E 06:26:24 10° S visible
02 Feb 3.0 17:32:42 10° SSE 17:37:45 72° ENE 17:42:50 10° N visible
02 Feb 6.1 19:14:30 10° WSW 19:17:18 15° W 19:20:07 10° NW visible
03 Feb 5.7 05:40:36 10° NE 05:44:30 22° E 05:48:23 10° SE visible
03 Feb 5.0 18:35:40 10° SSW 18:40:09 31° W 18:44:41 10° NNW visible
04 Feb 3.2 06:41:58 10° NNE 06:47:04 80° ESE 06:52:09 10° S visible
04 Feb 3.4 17:58:10 10° S 18:03:13 68° WSW 18:08:18 10° NNW visible
05 Feb 4.7 06:05:29 10° NNE 06:10:11 37° E 06:14:52 10° SSE visible
05 Feb 5.9 19:02:23 10° SW 19:05:52 19° W 19:09:24 10° NW visible
06 Feb 6.0 05:29:44 10° NE 05:33:05 17° E 05:36:25 10° SE visible
06 Feb 4.6 18:24:04 10° SSW 18:28:48 39° W 18:33:34 10° NNW visible
07 Feb 3.6 06:30:42 10° NNE 06:35:46 64° E 06:40:48 10° S visible
07 Feb 3.1 17:46:50 10° SSE 17:51:55 85° WSW 17:57:02 10° NNW visible
07 Feb 6.5 19:30:57 10° W 19:31:42 10° W 19:32:28 10° WNW visible
